Year,Month,Day,Hour,Minute,Value (Times are PST for temperature in C)
2011,08,21,00,00,16.90
2011,08,21,00,01,16.90
2011,08,21,00,02,16.80
2011,08,21,00,03,16.80
2011,08,21,00,04,16.80
2011,08,21,00,05,16.80
2011,08,21,00,06,16.80
2011,08,21,00,07,16.80
2011,08,21,00,08,16.80
2011,08,21,00,09,16.70
2011,08,21,00,10,16.70
2011,08,21,00,11,16.70
2011,08,21,00,12,16.70
2011,08,21,00,13,16.70
2011,08,21,00,14,16.70
2011,08,21,00,15,16.70
2011,08,21,00,16,16.70
2011,08,21,00,17,16.70
2011,08,21,00,18,16.70
2011,08,21,00,19,16.70
2011,08,21,00,20,16.70
2011,08,21,00,21,16.70
2011,08,21,00,22,16.70
2011,08,21,00,23,16.60
2011,08,21,00,24,16.60
2011,08,21,00,25,16.60
2011,08,21,00,26,16.60
2011,08,21,00,27,16.60
2011,08,21,00,28,16.60
2011,08,21,00,29,16.60
2011,08,21,00,30,16.60
2011,08,21,00,31,16.60
2011,08,21,00,32,16.60
2011,08,21,00,33,16.60
2011,08,21,00,34,16.70
2011,08,21,00,35,16.70
2011,08,21,00,36,16.70
2011,08,21,00,37,16.70
2011,08,21,00,38,16.70
2011,08,21,00,39,16.70
2011,08,21,00,40,16.70
2011,08,21,00,41,16.70
2011,08,21,00,42,16.70
2011,08,21,00,43,16.70
2011,08,21,00,44,16.70
2011,08,21,00,45,16.70
2011,08,21,00,46,16.70
2011,08,21,00,47,16.70
2011,08,21,00,48,16.70
2011,08,21,00,49,16.70
2011,08,21,00,50,16.70
2011,08,21,00,51,16.70
2011,08,21,00,52,16.70
2011,08,21,00,53,16.70
2011,08,21,00,54,16.70
2011,08,21,00,55,16.70
2011,08,21,00,56,16.70
2011,08,21,00,57,16.70
2011,08,21,00,58,16.70
2011,08,21,00,59,16.70
2011,08,21,01,00,16.60
2011,08,21,01,01,16.60
2011,08,21,01,02,16.60
2011,08,21,01,03,16.60
2011,08,21,01,04,16.60
2011,08,21,01,05,16.50
2011,08,21,01,06,16.40
2011,08,21,01,07,16.40
2011,08,21,01,08,16.40
2011,08,21,01,09,16.40
2011,08,21,01,10,16.40
2011,08,21,01,11,16.40
2011,08,21,01,12,16.40
2011,08,21,01,13,16.40
2011,08,21,01,14,16.40
2011,08,21,01,15,16.40
2011,08,21,01,16,16.40
2011,08,21,01,17,16.40
2011,08,21,01,18,16.30
2011,08,21,01,19,16.30
2011,08,21,01,20,16.30
2011,08,21,01,21,16.30
2011,08,21,01,22,16.30
2011,08,21,01,23,16.30
2011,08,21,01,24,16.30
2011,08,21,01,25,16.30
2011,08,21,01,26,16.30
2011,08,21,01,27,16.30
2011,08,21,01,28,16.30
2011,08,21,01,29,16.30
2011,08,21,01,30,16.30
2011,08,21,01,31,16.30
2011,08,21,01,32,16.20
2011,08,21,01,33,16.20
2011,08,21,01,34,16.20
2011,08,21,01,35,16.20
2011,08,21,01,36,16.20
2011,08,21,01,37,16.20
2011,08,21,01,38,16.20
2011,08,21,01,39,16.20
2011,08,21,01,40,16.20
2011,08,21,01,41,16.20
2011,08,21,01,42,16.20
2011,08,21,01,43,16.20
2011,08,21,01,44,16.20
2011,08,21,01,45,16.30
2011,08,21,01,46,16.30
2011,08,21,01,47,16.30
2011,08,21,01,48,16.30
2011,08,21,01,49,16.30
2011,08,21,01,50,16.30
2011,08,21,01,51,16.30
2011,08,21,01,52,16.20
2011,08,21,01,53,16.20
2011,08,21,01,54,16.20
2011,08,21,01,55,16.20
2011,08,21,01,56,16.20
2011,08,21,01,57,16.20
2011,08,21,01,58,16.20
2011,08,21,01,59,16.20
2011,08,21,02,00,16.20
2011,08,21,02,01,16.20
2011,08,21,02,02,16.20
2011,08,21,02,03,16.10
2011,08,21,02,04,16.10
2011,08,21,02,05,16.10
2011,08,21,02,06,16.10
2011,08,21,02,07,16.10
2011,08,21,02,08,16.10
2011,08,21,02,09,16.10
2011,08,21,02,10,16.10
2011,08,21,02,11,16.10
2011,08,21,02,12,16.10
2011,08,21,02,13,16.10
2011,08,21,02,14,16.10
2011,08,21,02,15,16.10
2011,08,21,02,16,16.10
2011,08,21,02,17,16.10
2011,08,21,02,18,16.10
2011,08,21,02,19,16.10
2011,08,21,02,20,16.10
2011,08,21,02,21,16.10
2011,08,21,02,22,16.10
2011,08,21,02,23,16.10
2011,08,21,02,24,16.10
2011,08,21,02,25,16.10
2011,08,21,02,26,16.10
2011,08,21,02,27,16.10
2011,08,21,02,28,16.10
2011,08,21,02,29,16.10
2011,08,21,02,30,16.10
2011,08,21,02,31,16.10
2011,08,21,02,32,16.10
2011,08,21,02,33,16.10
2011,08,21,02,34,16.10
2011,08,21,02,35,16.10
2011,08,21,02,36,16.10
2011,08,21,02,37,16.10
2011,08,21,02,38,16.00
2011,08,21,02,39,15.90
2011,08,21,02,40,15.90
2011,08,21,02,41,16.00
2011,08,21,02,42,16.10
2011,08,21,02,43,16.10
2011,08,21,02,44,16.10
2011,08,21,02,45,16.10
2011,08,21,02,46,16.10
2011,08,21,02,47,16.10
2011,08,21,02,48,16.10
2011,08,21,02,49,16.10
2011,08,21,02,50,16.10
2011,08,21,02,51,16.10
2011,08,21,02,52,16.10
2011,08,21,02,53,16.10
2011,08,21,02,54,16.10
2011,08,21,02,55,16.10
2011,08,21,02,56,16.10
2011,08,21,02,57,16.10
2011,08,21,02,58,16.10
2011,08,21,02,59,15.90
2011,08,21,03,00,15.90
2011,08,21,03,01,15.90
2011,08,21,03,02,15.90
2011,08,21,03,03,15.90
2011,08,21,03,04,15.90
2011,08,21,03,05,15.90
2011,08,21,03,06,15.90
2011,08,21,03,07,15.90
2011,08,21,03,08,15.90
2011,08,21,03,09,15.90
2011,08,21,03,10,15.90
2011,08,21,03,11,15.90
2011,08,21,03,12,15.90
2011,08,21,03,13,15.90
2011,08,21,03,14,15.90
2011,08,21,03,15,15.90
2011,08,21,03,16,15.90
2011,08,21,03,17,15.90
2011,08,21,03,18,15.80
2011,08,21,03,19,15.80
2011,08,21,03,20,15.70
2011,08,21,03,21,15.60
2011,08,21,03,22,15.50
2011,08,21,03,23,15.50
2011,08,21,03,24,15.40
2011,08,21,03,25,15.30
2011,08,21,03,26,15.30
2011,08,21,03,27,15.30
2011,08,21,03,28,15.20
2011,08,21,03,29,15.20
2011,08,21,03,30,15.20
2011,08,21,03,31,15.10
2011,08,21,03,32,15.10
2011,08,21,03,33,15.00
2011,08,21,03,34,15.00
2011,08,21,03,35,14.90
2011,08,21,03,36,14.90
2011,08,21,03,37,14.90
2011,08,21,03,38,14.90
2011,08,21,03,39,14.90
2011,08,21,03,40,14.80
2011,08,21,03,41,14.80
2011,08,21,03,42,14.80
2011,08,21,03,43,14.80
2011,08,21,03,44,14.80
2011,08,21,03,45,14.80
2011,08,21,03,46,14.80
2011,08,21,03,47,14.80
2011,08,21,03,48,14.80
2011,08,21,03,49,14.80
2011,08,21,03,50,14.80
2011,08,21,03,51,14.80
2011,08,21,03,52,14.70
2011,08,21,03,53,14.70
2011,08,21,03,54,14.70
2011,08,21,03,55,14.60
2011,08,21,03,56,14.60
2011,08,21,03,57,14.60
2011,08,21,03,58,14.60
2011,08,21,03,59,14.60
2011,08,21,04,00,14.50
2011,08,21,04,01,14.50
2011,08,21,04,02,14.50
2011,08,21,04,03,14.50
2011,08,21,04,04,14.50
2011,08,21,04,05,14.50
2011,08,21,04,06,14.50
2011,08,21,04,07,14.50
2011,08,21,04,08,14.50
2011,08,21,04,09,14.50
2011,08,21,04,10,14.50
2011,08,21,04,11,14.40
2011,08,21,04,12,14.40
2011,08,21,04,13,14.40
2011,08,21,04,14,14.40
2011,08,21,04,15,14.40
2011,08,21,04,16,14.40
2011,08,21,04,17,14.40
2011,08,21,04,18,14.40
2011,08,21,04,19,14.40
2011,08,21,04,20,14.40
2011,08,21,04,21,14.40
2011,08,21,04,22,14.40
2011,08,21,04,23,14.40
2011,08,21,04,24,14.40
2011,08,21,04,25,14.50
2011,08,21,04,26,14.50
2011,08,21,04,27,14.50
2011,08,21,04,28,14.50
2011,08,21,04,29,14.50
2011,08,21,04,30,14.50
2011,08,21,04,31,14.50
2011,08,21,04,32,14.50
2011,08,21,04,33,14.50
2011,08,21,04,34,14.50
2011,08,21,04,35,14.60
2011,08,21,04,36,14.60
2011,08,21,04,37,14.60
2011,08,21,04,38,14.70
2011,08,21,04,39,14.70
2011,08,21,04,40,14.70
2011,08,21,04,41,14.80
2011,08,21,04,42,14.80
2011,08,21,04,43,14.80
2011,08,21,04,44,14.90
2011,08,21,04,45,15.00
2011,08,21,04,46,15.10
2011,08,21,04,47,15.20
2011,08,21,04,48,15.20
2011,08,21,04,49,15.30
2011,08,21,04,50,15.30
2011,08,21,04,51,15.30
2011,08,21,04,52,15.40
2011,08,21,04,53,15.40
2011,08,21,04,54,15.40
2011,08,21,04,55,15.50
2011,08,21,04,56,15.50
2011,08,21,04,57,15.50
2011,08,21,04,58,15.50
2011,08,21,04,59,15.60
2011,08,21,05,00,15.60
2011,08,21,05,01,15.60
2011,08,21,05,02,15.60
2011,08,21,05,03,15.60
2011,08,21,05,04,15.60
2011,08,21,05,05,15.60
2011,08,21,05,06,15.60
2011,08,21,05,07,15.50
2011,08,21,05,08,15.50
2011,08,21,05,09,15.50
2011,08,21,05,10,15.50
2011,08,21,05,11,15.50
2011,08,21,05,12,15.50
2011,08,21,05,13,15.50
2011,08,21,05,14,15.40
2011,08,21,05,15,15.40
2011,08,21,05,16,15.40
2011,08,21,05,17,15.40
2011,08,21,05,18,15.40
2011,08,21,05,19,15.30
2011,08,21,05,20,15.30
2011,08,21,05,21,15.30
2011,08,21,05,22,15.30
2011,08,21,05,23,15.30
2011,08,21,05,24,15.30
2011,08,21,05,25,15.30
2011,08,21,05,26,15.30
2011,08,21,05,27,15.30
2011,08,21,05,28,15.30
2011,08,21,05,29,15.30
2011,08,21,05,30,15.20
2011,08,21,05,31,15.20
2011,08,21,05,32,15.20
2011,08,21,05,33,15.20
2011,08,21,05,34,15.20
2011,08,21,05,35,15.20
2011,08,21,05,36,15.20
2011,08,21,05,37,15.20
2011,08,21,05,38,15.20
2011,08,21,05,39,15.20
2011,08,21,05,40,15.30
2011,08,21,05,41,15.30
2011,08,21,05,42,15.30
2011,08,21,05,43,15.30
2011,08,21,05,44,15.30
2011,08,21,05,45,15.30
2011,08,21,05,46,15.30
2011,08,21,05,47,15.30
2011,08,21,05,48,15.30
2011,08,21,05,49,15.30
2011,08,21,05,50,15.30
2011,08,21,05,51,15.30
2011,08,21,05,52,15.30
2011,08,21,05,53,15.30
2011,08,21,05,54,15.30
2011,08,21,05,55,15.30
2011,08,21,05,56,15.30
2011,08,21,05,57,15.30
2011,08,21,05,58,15.40
2011,08,21,05,59,15.40
2011,08,21,06,00,15.40
2011,08,21,06,01,15.40
2011,08,21,06,02,15.40
2011,08,21,06,03,15.50
2011,08,21,06,04,15.50
2011,08,21,06,05,15.60
2011,08,21,06,06,15.70
2011,08,21,06,07,15.70
2011,08,21,06,08,15.80
2011,08,21,06,09,15.80
2011,08,21,06,10,15.90
2011,08,21,06,11,15.90
2011,08,21,06,12,15.90
2011,08,21,06,13,16.00
2011,08,21,06,14,16.10
2011,08,21,06,15,16.10
2011,08,21,06,16,16.10
2011,08,21,06,17,16.10
2011,08,21,06,18,16.10
2011,08,21,06,19,16.10
2011,08,21,06,20,16.20
2011,08,21,06,21,16.20
2011,08,21,06,22,16.20
2011,08,21,06,23,16.20
2011,08,21,06,24,16.30
2011,08,21,06,25,16.30
2011,08,21,06,26,16.30
2011,08,21,06,27,16.30
2011,08,21,06,28,16.30
2011,08,21,06,29,16.30
2011,08,21,06,30,16.30
2011,08,21,06,31,16.30
2011,08,21,06,32,16.30
2011,08,21,06,33,16.30
2011,08,21,06,34,16.30
2011,08,21,06,35,16.30
2011,08,21,06,36,16.30
2011,08,21,06,37,16.30
2011,08,21,06,38,16.30
2011,08,21,06,39,16.30
2011,08,21,06,40,16.30
2011,08,21,06,41,16.20
2011,08,21,06,42,16.20
2011,08,21,06,43,16.20
2011,08,21,06,44,16.20
2011,08,21,06,45,16.20
2011,08,21,06,46,16.20
2011,08,21,06,47,16.20
2011,08,21,06,48,16.20
2011,08,21,06,49,16.10
2011,08,21,06,50,16.10
2011,08,21,06,51,16.10
2011,08,21,06,52,16.10
2011,08,21,06,53,16.10
2011,08,21,06,54,16.10
2011,08,21,06,55,16.10
2011,08,21,06,56,16.10
2011,08,21,06,57,16.10
2011,08,21,06,58,16.10
2011,08,21,06,59,16.10
2011,08,21,07,00,16.10
2011,08,21,07,01,16.20
2011,08,21,07,02,16.20
2011,08,21,07,03,16.20
2011,08,21,07,04,16.20
2011,08,21,07,05,16.20
2011,08,21,07,06,16.20
2011,08,21,07,07,16.20
2011,08,21,07,08,16.20
2011,08,21,07,09,16.20
2011,08,21,07,10,16.20
2011,08,21,07,11,16.20
2011,08,21,07,12,16.20
2011,08,21,07,13,16.20
2011,08,21,07,14,16.20
2011,08,21,07,15,16.20
2011,08,21,07,16,16.20
2011,08,21,07,17,16.20
2011,08,21,07,18,16.20
2011,08,21,07,19,16.20
2011,08,21,07,20,16.20
2011,08,21,07,21,16.20
2011,08,21,07,22,16.30
2011,08,21,07,23,16.30
2011,08,21,07,24,16.30
2011,08,21,07,25,16.30
2011,08,21,07,26,16.30
2011,08,21,07,27,16.40
2011,08,21,07,28,16.40
2011,08,21,07,29,16.40
2011,08,21,07,30,16.40
2011,08,21,07,31,16.40
2011,08,21,07,32,16.40
2011,08,21,07,33,16.40
2011,08,21,07,34,16.40
2011,08,21,07,35,16.40
2011,08,21,07,36,16.40
2011,08,21,07,37,16.40
2011,08,21,07,38,16.40
2011,08,21,07,39,16.40
2011,08,21,07,40,16.40
2011,08,21,07,41,16.40
2011,08,21,07,42,16.50
2011,08,21,07,43,16.60
2011,08,21,07,44,16.60
2011,08,21,07,45,16.70
2011,08,21,07,46,16.70
2011,08,21,07,47,16.70
2011,08,21,07,48,16.70
2011,08,21,07,49,16.70
2011,08,21,07,50,16.70
2011,08,21,07,51,16.70
2011,08,21,07,52,16.70
2011,08,21,07,53,16.70
2011,08,21,07,54,16.70
2011,08,21,07,55,16.70
2011,08,21,07,56,16.70
2011,08,21,07,57,16.70
2011,08,21,07,58,16.70
2011,08,21,07,59,16.70
2011,08,21,08,00,16.70
2011,08,21,08,01,16.70
2011,08,21,08,02,16.70
2011,08,21,08,03,16.70
2011,08,21,08,04,16.70
2011,08,21,08,05,16.70
2011,08,21,08,06,16.70
2011,08,21,08,07,16.70
2011,08,21,08,08,16.80
2011,08,21,08,09,16.80
2011,08,21,08,10,16.90
2011,08,21,08,11,16.90
2011,08,21,08,12,16.90
2011,08,21,08,13,16.90
2011,08,21,08,14,17.00
2011,08,21,08,15,17.00
2011,08,21,08,16,17.00
2011,08,21,08,17,17.00
2011,08,21,08,18,17.10
2011,08,21,08,19,17.10
2011,08,21,08,20,17.10
2011,08,21,08,21,17.20
2011,08,21,08,22,17.20
2011,08,21,08,23,17.30
2011,08,21,08,24,17.30
2011,08,21,08,25,17.30
2011,08,21,08,26,17.30
2011,08,21,08,27,17.30
2011,08,21,08,28,17.30
2011,08,21,08,29,17.30
2011,08,21,08,30,17.30
2011,08,21,08,31,17.30
2011,08,21,08,32,17.30
2011,08,21,08,33,17.30
2011,08,21,08,34,17.30
2011,08,21,08,35,17.30
2011,08,21,08,36,17.30
2011,08,21,08,37,17.30
2011,08,21,08,38,17.30
2011,08,21,08,39,17.40
2011,08,21,08,40,17.40
2011,08,21,08,41,17.50
2011,08,21,08,42,17.50
2011,08,21,08,43,17.50
2011,08,21,08,44,17.50
2011,08,21,08,45,17.50
2011,08,21,08,46,17.50
2011,08,21,08,47,17.50
2011,08,21,08,48,17.60
2011,08,21,08,49,17.60
2011,08,21,08,50,17.70
2011,08,21,08,51,17.70
2011,08,21,08,52,17.70
2011,08,21,08,53,17.80
2011,08,21,08,54,17.80
2011,08,21,08,55,17.90
2011,08,21,08,56,17.90
2011,08,21,08,57,17.90
2011,08,21,08,58,17.90
2011,08,21,08,59,18.00
2011,08,21,09,00,18.10
2011,08,21,09,01,18.20
2011,08,21,09,02,18.20
2011,08,21,09,03,18.20
2011,08,21,09,04,18.30
2011,08,21,09,05,18.30
2011,08,21,09,06,18.40
2011,08,21,09,07,18.50
2011,08,21,09,08,18.50
2011,08,21,09,09,18.50
2011,08,21,09,10,18.60
2011,08,21,09,11,18.60
2011,08,21,09,12,18.60
2011,08,21,09,13,18.60
2011,08,21,09,14,18.70
2011,08,21,09,15,18.70
2011,08,21,09,16,18.70
2011,08,21,09,17,18.70
2011,08,21,09,18,18.70
2011,08,21,09,19,18.70
2011,08,21,09,20,18.70
2011,08,21,09,21,18.70
2011,08,21,09,22,18.60
2011,08,21,09,23,18.60
2011,08,21,09,24,18.60
2011,08,21,09,25,18.60
2011,08,21,09,26,18.60
2011,08,21,09,27,18.60
2011,08,21,09,28,18.50
2011,08,21,09,29,18.50
2011,08,21,09,30,18.50
2011,08,21,09,31,18.40
2011,08,21,09,32,18.40
2011,08,21,09,33,18.30
2011,08,21,09,34,18.30
2011,08,21,09,35,18.30
2011,08,21,09,36,18.30
2011,08,21,09,37,18.20
2011,08,21,09,38,18.20
2011,08,21,09,39,18.20
2011,08,21,09,40,18.30
2011,08,21,09,41,18.30
2011,08,21,09,42,18.40
2011,08,21,09,43,18.40
2011,08,21,09,44,18.40
2011,08,21,09,45,18.50
2011,08,21,09,46,18.50
2011,08,21,09,47,18.60
2011,08,21,09,48,18.60
2011,08,21,09,49,18.70
2011,08,21,09,50,18.80
2011,08,21,09,51,18.90
2011,08,21,09,52,18.90
2011,08,21,09,53,19.00
2011,08,21,09,54,19.10
2011,08,21,09,55,19.00
2011,08,21,09,56,18.90
2011,08,21,09,57,18.80
2011,08,21,09,58,18.60
2011,08,21,09,59,18.50
2011,08,21,10,00,18.30
2011,08,21,10,01,18.20
2011,08,21,10,02,18.20
2011,08,21,10,03,18.10
2011,08,21,10,04,18.10
2011,08,21,10,05,18.00
2011,08,21,10,06,17.90
2011,08,21,10,07,17.80
2011,08,21,10,08,17.70
2011,08,21,10,09,17.50
2011,08,21,10,10,17.40
2011,08,21,10,11,17.30
2011,08,21,10,12,17.30
2011,08,21,10,13,17.30
2011,08,21,10,14,17.30
2011,08,21,10,15,17.30
2011,08,21,10,16,17.30
2011,08,21,10,17,17.30
2011,08,21,10,18,17.30
2011,08,21,10,19,17.40
2011,08,21,10,20,17.50
2011,08,21,10,21,17.50
2011,08,21,10,22,17.70
2011,08,21,10,23,17.80
2011,08,21,10,24,17.90
2011,08,21,10,25,18.00
2011,08,21,10,26,18.10
2011,08,21,10,27,18.10
2011,08,21,10,28,18.10
2011,08,21,10,29,18.20
2011,08,21,10,30,18.30
2011,08,21,10,31,18.40
2011,08,21,10,32,18.50
2011,08,21,10,33,18.50
2011,08,21,10,34,18.60
2011,08,21,10,35,18.70
2011,08,21,10,36,18.80
2011,08,21,10,37,18.80
2011,08,21,10,38,18.90
2011,08,21,10,39,18.90
2011,08,21,10,40,18.90
2011,08,21,10,41,19.00
2011,08,21,10,42,19.10
2011,08,21,10,43,19.20
2011,08,21,10,44,19.30
2011,08,21,10,45,19.40
2011,08,21,10,46,19.50
2011,08,21,10,47,19.50
2011,08,21,10,48,19.50
2011,08,21,10,49,19.60
2011,08,21,10,50,19.60
2011,08,21,10,51,19.60
2011,08,21,10,52,19.60
2011,08,21,10,53,19.70
2011,08,21,10,54,19.70
2011,08,21,10,55,19.80
2011,08,21,10,56,19.80
2011,08,21,10,57,19.90
2011,08,21,10,58,19.90
2011,08,21,10,59,19.90
2011,08,21,11,00,20.00
2011,08,21,11,01,20.10
2011,08,21,11,02,20.20
2011,08,21,11,03,20.20
2011,08,21,11,04,20.30
2011,08,21,11,05,20.40
2011,08,21,11,06,20.50
2011,08,21,11,07,20.60
2011,08,21,11,08,20.70
2011,08,21,11,09,20.80
2011,08,21,11,10,20.90
2011,08,21,11,11,21.00
2011,08,21,11,12,21.10
2011,08,21,11,13,21.20
2011,08,21,11,14,21.30
2011,08,21,11,15,21.30
2011,08,21,11,16,21.30
2011,08,21,11,17,21.40
2011,08,21,11,18,21.50
2011,08,21,11,19,21.60
2011,08,21,11,20,21.60
2011,08,21,11,21,21.80
2011,08,21,11,22,21.90
2011,08,21,11,23,22.10
2011,08,21,11,24,22.20
2011,08,21,11,25,22.30
2011,08,21,11,26,22.40
2011,08,21,11,27,22.40
2011,08,21,11,28,22.50
2011,08,21,11,29,22.60
2011,08,21,11,30,22.60
2011,08,21,11,31,22.60
2011,08,21,11,32,22.60
2011,08,21,11,33,22.50
2011,08,21,11,34,22.40
2011,08,21,11,35,22.30
2011,08,21,11,36,22.30
2011,08,21,11,37,22.20
2011,08,21,11,38,22.10
2011,08,21,11,39,22.10
2011,08,21,11,40,22.00
2011,08,21,11,41,22.00
2011,08,21,11,42,22.00
2011,08,21,11,43,22.00
2011,08,21,11,44,22.00
2011,08,21,11,45,22.10
2011,08,21,11,46,22.20
2011,08,21,11,47,22.20
2011,08,21,11,48,22.20
2011,08,21,11,49,22.20
2011,08,21,11,50,22.30
2011,08,21,11,51,22.30
2011,08,21,11,52,22.30
2011,08,21,11,53,22.40
2011,08,21,11,54,22.50
2011,08,21,11,55,22.50
2011,08,21,11,56,22.60
2011,08,21,11,57,22.60
2011,08,21,11,58,22.70
2011,08,21,11,59,22.80
2011,08,21,12,00,22.90
2011,08,21,12,01,22.90
2011,08,21,12,02,23.00
2011,08,21,12,03,23.10
2011,08,21,12,04,23.10
2011,08,21,12,05,23.20
2011,08,21,12,06,23.20
2011,08,21,12,07,23.30
2011,08,21,12,08,23.40
2011,08,21,12,09,23.50
2011,08,21,12,10,23.60
2011,08,21,12,11,23.70
2011,08,21,12,12,23.80
2011,08,21,12,13,23.90
2011,08,21,12,14,24.00
2011,08,21,12,15,24.10
2011,08,21,12,16,24.30
2011,08,21,12,17,24.40
2011,08,21,12,18,24.50
2011,08,21,12,19,24.50
2011,08,21,12,20,24.60
2011,08,21,12,21,24.60
2011,08,21,12,22,24.70
2011,08,21,12,23,24.70
2011,08,21,12,24,24.70
2011,08,21,12,25,24.70
2011,08,21,12,26,24.70
2011,08,21,12,27,24.70
2011,08,21,12,28,24.70
2011,08,21,12,29,24.80
2011,08,21,12,30,24.70
2011,08,21,12,31,24.70
2011,08,21,12,32,24.70
2011,08,21,12,33,24.80
2011,08,21,12,34,24.90
2011,08,21,12,35,24.90
2011,08,21,12,36,24.80
2011,08,21,12,37,24.80
2011,08,21,12,38,24.80
2011,08,21,12,39,24.80
2011,08,21,12,40,24.90
2011,08,21,12,41,24.90
2011,08,21,12,42,24.90
2011,08,21,12,43,24.90
2011,08,21,12,44,25.00
2011,08,21,12,45,25.10
2011,08,21,12,46,25.10
2011,08,21,12,47,25.10
2011,08,21,12,48,25.10
2011,08,21,12,49,25.00
2011,08,21,12,50,25.00
2011,08,21,12,51,25.00
2011,08,21,12,52,24.90
2011,08,21,12,53,24.90
2011,08,21,12,54,24.90
2011,08,21,12,55,24.90
2011,08,21,12,56,24.90
2011,08,21,12,57,24.90
2011,08,21,12,58,24.90
2011,08,21,12,59,24.90
2011,08,21,13,00,24.90
2011,08,21,13,01,24.90
2011,08,21,13,02,24.90
2011,08,21,13,03,24.90
2011,08,21,13,04,24.80
2011,08,21,13,05,24.80
2011,08,21,13,06,24.90
2011,08,21,13,07,24.90
2011,08,21,13,08,24.90
2011,08,21,13,09,24.90
2011,08,21,13,10,25.00
2011,08,21,13,11,25.00
2011,08,21,13,12,25.00
2011,08,21,13,13,25.00
2011,08,21,13,14,25.00
2011,08,21,13,15,25.00
2011,08,21,13,16,25.10
2011,08,21,13,17,25.10
2011,08,21,13,18,25.10
2011,08,21,13,19,25.10
2011,08,21,13,20,25.10
2011,08,21,13,21,25.10
2011,08,21,13,22,25.20
2011,08,21,13,23,25.20
2011,08,21,13,24,25.30
2011,08,21,13,25,25.30
2011,08,21,13,26,25.40
2011,08,21,13,27,25.40
2011,08,21,13,28,25.40
2011,08,21,13,29,25.40
2011,08,21,13,30,25.40
2011,08,21,13,31,25.40
2011,08,21,13,32,25.40
2011,08,21,13,33,25.40
2011,08,21,13,34,25.40
2011,08,21,13,35,25.30
2011,08,21,13,36,25.30
2011,08,21,13,37,25.30
2011,08,21,13,38,25.40
2011,08,21,13,39,25.50
2011,08,21,13,40,25.60
2011,08,21,13,41,25.60
2011,08,21,13,42,25.60
2011,08,21,13,43,25.70
2011,08,21,13,44,25.70
2011,08,21,13,45,25.80
2011,08,21,13,46,25.90
2011,08,21,13,47,25.90
2011,08,21,13,48,26.00
2011,08,21,13,49,26.00
2011,08,21,13,50,26.00
2011,08,21,13,51,26.00
2011,08,21,13,52,26.00
2011,08,21,13,53,26.10
2011,08,21,13,54,26.20
2011,08,21,13,55,26.30
2011,08,21,13,56,26.40
2011,08,21,13,57,26.40
2011,08,21,13,58,26.40
2011,08,21,13,59,26.40
2011,08,21,14,00,26.40
2011,08,21,14,01,26.40
2011,08,21,14,02,26.40
2011,08,21,14,03,26.50
2011,08,21,14,04,26.50
2011,08,21,14,05,26.60
2011,08,21,14,06,26.40
2011,08,21,14,07,26.40
2011,08,21,14,08,26.40
2011,08,21,14,09,26.40
2011,08,21,14,10,26.30
2011,08,21,14,11,26.30
2011,08,21,14,12,26.30
2011,08,21,14,13,26.30
2011,08,21,14,14,26.30
2011,08,21,14,15,26.30
2011,08,21,14,16,26.20
2011,08,21,14,17,26.20
2011,08,21,14,18,26.20
2011,08,21,14,19,26.20
2011,08,21,14,20,26.10
2011,08,21,14,21,26.00
2011,08,21,14,22,25.90
2011,08,21,14,23,25.90
2011,08,21,14,24,25.90
2011,08,21,14,25,25.90
2011,08,21,14,26,26.00
2011,08,21,14,27,26.00
2011,08,21,14,28,25.90
2011,08,21,14,29,25.90
2011,08,21,14,30,25.80
2011,08,21,14,31,25.80
2011,08,21,14,32,25.70
2011,08,21,14,33,25.80
2011,08,21,14,34,25.80
2011,08,21,14,35,25.80
2011,08,21,14,36,25.70
2011,08,21,14,37,25.70
2011,08,21,14,38,25.70
2011,08,21,14,39,25.80
2011,08,21,14,40,25.80
2011,08,21,14,41,25.90
2011,08,21,14,42,25.90
2011,08,21,14,43,26.00
2011,08,21,14,44,26.00
2011,08,21,14,45,26.00
2011,08,21,14,46,25.90
2011,08,21,14,47,25.80
2011,08,21,14,48,25.70
2011,08,21,14,49,25.70
2011,08,21,14,50,25.70
2011,08,21,14,51,25.60
2011,08,21,14,52,25.60
2011,08,21,14,53,25.60
2011,08,21,14,54,25.70
2011,08,21,14,55,25.60
2011,08,21,14,56,25.50
2011,08,21,14,57,25.40
2011,08,21,14,58,25.40
2011,08,21,14,59,25.30
2011,08,21,15,00,25.30
2011,08,21,15,01,25.20
2011,08,21,15,02,25.00
2011,08,21,15,03,24.90
2011,08,21,15,04,24.90
2011,08,21,15,05,24.80
2011,08,21,15,06,24.70
2011,08,21,15,07,24.70
2011,08,21,15,08,24.60
2011,08,21,15,09,24.60
2011,08,21,15,10,24.60
2011,08,21,15,11,24.60
2011,08,21,15,12,24.60
2011,08,21,15,13,24.60
2011,08,21,15,14,24.60
2011,08,21,15,15,24.60
2011,08,21,15,16,24.60
2011,08,21,15,17,24.60
2011,08,21,15,18,24.60
2011,08,21,15,19,24.60
2011,08,21,15,20,24.60
2011,08,21,15,21,24.60
2011,08,21,15,22,24.50
2011,08,21,15,23,24.50
2011,08,21,15,24,24.50
2011,08,21,15,25,24.60
2011,08,21,15,26,24.70
2011,08,21,15,27,24.80
2011,08,21,15,28,24.80
2011,08,21,15,29,24.90
2011,08,21,15,30,24.90
2011,08,21,15,31,24.90
2011,08,21,15,32,25.00
2011,08,21,15,33,25.00
2011,08,21,15,34,25.00
2011,08,21,15,35,25.00
2011,08,21,15,36,25.00
2011,08,21,15,37,25.00
2011,08,21,15,38,25.00
2011,08,21,15,39,25.00
2011,08,21,15,40,24.90
2011,08,21,15,41,24.90
2011,08,21,15,42,24.90
2011,08,21,15,43,24.80
2011,08,21,15,44,24.80
2011,08,21,15,45,24.80
2011,08,21,15,46,24.80
2011,08,21,15,47,24.80
2011,08,21,15,48,24.80
2011,08,21,15,49,24.80
2011,08,21,15,50,24.80
2011,08,21,15,51,24.80
2011,08,21,15,52,24.80
2011,08,21,15,53,24.80
2011,08,21,15,54,24.80
2011,08,21,15,55,24.70
2011,08,21,15,56,24.70
2011,08,21,15,57,24.70
2011,08,21,15,58,24.60
2011,08,21,15,59,24.60
2011,08,21,16,00,24.50
2011,08,21,16,01,24.40
2011,08,21,16,02,24.40
2011,08,21,16,03,24.40
2011,08,21,16,04,24.40
2011,08,21,16,05,24.40
2011,08,21,16,06,24.40
2011,08,21,16,07,24.40
2011,08,21,16,08,24.40
2011,08,21,16,09,24.40
2011,08,21,16,10,24.40
2011,08,21,16,11,24.40
2011,08,21,16,12,24.40
2011,08,21,16,13,24.40
2011,08,21,16,14,24.40
2011,08,21,16,15,24.40
2011,08,21,16,16,24.40
2011,08,21,16,17,24.30
2011,08,21,16,18,24.30
2011,08,21,16,19,24.30
2011,08,21,16,20,24.30
2011,08,21,16,21,24.30
2011,08,21,16,22,24.30
2011,08,21,16,23,24.20
2011,08,21,16,24,24.20
2011,08,21,16,25,24.20
2011,08,21,16,26,24.10
2011,08,21,16,27,24.10
2011,08,21,16,28,24.00
2011,08,21,16,29,23.90
2011,08,21,16,30,23.90
2011,08,21,16,31,23.90
2011,08,21,16,32,23.90
2011,08,21,16,33,23.90
2011,08,21,16,34,23.90
2011,08,21,16,35,23.90
2011,08,21,16,36,23.90
2011,08,21,16,37,23.90
2011,08,21,16,38,23.90
2011,08,21,16,39,23.90
2011,08,21,16,40,23.90
2011,08,21,16,41,23.90
2011,08,21,16,42,23.90
2011,08,21,16,43,23.90
2011,08,21,16,44,23.90
2011,08,21,16,45,24.00
2011,08,21,16,46,24.10
2011,08,21,16,47,24.10
2011,08,21,16,48,24.10
2011,08,21,16,49,24.20
2011,08,21,16,50,24.20
2011,08,21,16,51,24.30
2011,08,21,16,52,24.30
2011,08,21,16,53,24.30
2011,08,21,16,54,24.40
2011,08,21,16,55,24.40
2011,08,21,16,56,24.50
2011,08,21,16,57,24.50
2011,08,21,16,58,24.40
2011,08,21,16,59,24.40
2011,08,21,17,00,24.50
2011,08,21,17,01,24.50
2011,08,21,17,02,24.50
2011,08,21,17,03,24.50
2011,08,21,17,04,24.60
2011,08,21,17,05,24.60
2011,08,21,17,06,24.60
2011,08,21,17,07,24.60
2011,08,21,17,08,24.60
2011,08,21,17,09,24.70
2011,08,21,17,10,24.70
2011,08,21,17,11,24.80
2011,08,21,17,12,24.80
2011,08,21,17,13,24.80
2011,08,21,17,14,24.90
2011,08,21,17,15,24.90
2011,08,21,17,16,25.00
2011,08,21,17,17,25.10
2011,08,21,17,18,25.10
2011,08,21,17,19,25.10